Tallulah, LA

1:19 AM CST on December 09, 2016 (GMT -0600)
Vicksburg Tallulah Regional

Weather History for KTVR - May, 2014

Change the Weather History Date:

Tuesday, May 20, 2014

  Actual Average Record
Temperature  
Mean Temperature 72 °F 74 °F  
Max Temperature 86 °F 85 °F 92 °F (2008)
Min Temperature 58 °F 63 °F 44 °F (2007)
Degree Days  
Heating Degree Days 0 0  
Month to date heating degree days 25 9  
Since 1 July heating degree days 2890 2350  
Cooling Degree Days 7 9  
Month to date cooling degree days 121 138  
Year to date cooling degree days 241 256  
Growing Degree Days 22 (Base 50)    
Moisture  
Dew Point 61 °F    
Average Humidity 67    
Maximum Humidity 93    
Minimum Humidity 40    
Precipitation  
Precipitation 0.00 in 0.16 in 1.47 in (1983)
Month to date precipitation 1.94 3.39  
Year to date precipitation 26.34 23.73  
Sea Level Pressure  
Sea Level Pressure 30.14 in    
Wind  
Wind Speed 7 mph (South)    
Max Wind Speed 16 mph    
Max Gust Speed 21 mph    
Visibility 8 miles    
Events      
T = Trace of Precipitation, MM = Missing Value Source: NWS Daily Summary

Daily Weather History Graph

Daily Weather History Graph

Search for Another Location

Airport or City:

Trip Planner

Search our weather history database for the weather conditions in past years. The results will help you decide how hot, cold, wet, or windy it might be!

Date:

Astronomy

May. 20, 2014 Rise Set
Actual Time 6:02 AM CDT 7:58 PM CDT
Civil Twilight 5:35 AM CDT 8:26 PM CDT
Nautical Twilight 5:02 AM CDT 8:59 PM CDT
Astronomical Twilight 4:27 AM CDT 9:34 PM CDT
Moon 12:36 AM CDT (5/20) 12:01 PM CDT (5/20)
Length of Visible Light 14h 50m
Length of Day
13h 55m
Waning Gibbous, 60% of the Moon is Illuminated
May 20
Waning Gibbous
May 21
Last Quarter
May 28
New
Jun 5
First Quarter
Jun 12
Full

Hourly Weather History & Observations

Time (CDT) Temp. Heat Index Dew Point Humidity Pressure Visibility Wind Dir Wind Speed Gust Speed Precip Events Conditions
1:53 AM 68.0 °F - 61.0 °F 78% 30.11 in 10.0 mi South 8.1 mph - N/A   Clear
2:53 AM 69.1 °F - 63.0 °F 81% 30.12 in 10.0 mi South 6.9 mph - N/A   Clear
3:53 AM 64.0 °F - 61.0 °F 90% 30.12 in 10.0 mi SSE 5.8 mph - N/A   Clear
4:53 AM 63.0 °F - 61.0 °F 93% 30.14 in 10.0 mi SSE 3.5 mph - N/A   Clear
5:53 AM 59.0 °F - 57.9 °F 96% 30.15 in 4.0 mi SSE 3.5 mph - N/A   Clear
6:10 AM 60.1 °F - 57.9 °F 93% 30.13 in 1.8 mi SSE 4.6 mph - N/A   Clear
6:25 AM 61.0 °F - 59.0 °F 93% 30.14 in 3.0 mi SSE 5.8 mph - N/A   Clear
6:57 AM 64.9 °F - 63.0 °F 93% 30.15 in 3.0 mi South 9.2 mph - N/A   Mostly Cloudy
7:05 AM 64.9 °F - 64.0 °F 97% 30.15 in 2.0 mi South 9.2 mph - N/A   Mostly Cloudy
7:15 AM 66.0 °F - 64.0 °F 93% 30.15 in 4.0 mi South 9.2 mph - N/A   Overcast
7:50 AM 68.0 °F - 64.4 °F 88% 30.16 in 8.0 mi South 9.2 mph - N/A   Scattered Clouds
7:53 AM 68.0 °F - 64.9 °F 90% 30.18 in 9.0 mi South 9.2 mph - N/A   Scattered Clouds
8:53 AM 73.0 °F - 64.0 °F 73% 30.19 in 10.0 mi South 8.1 mph - N/A   Clear
9:53 AM 75.9 °F - 62.1 °F 62% 30.20 in 10.0 mi SSW 9.2 mph - N/A   Clear
10:53 AM 79.0 °F - 62.1 °F 56% 30.19 in 10.0 mi South 9.2 mph 18.4 mph N/A   Clear
11:53 AM 82.0 °F 83.1 °F 63.0 °F 52% 30.19 in 10.0 mi SSW 8.1 mph - N/A   Clear
12:53 PM 82.9 °F 84.0 °F 63.0 °F 51% 30.17 in 10.0 mi Variable 4.6 mph - N/A   Clear
1:53 PM 84.9 °F 85.0 °F 61.0 °F 44% 30.16 in 10.0 mi South 12.7 mph - N/A   Clear
2:53 PM 84.9 °F 84.8 °F 60.1 °F 43% 30.15 in 10.0 mi South 8.1 mph 18.4 mph N/A   Clear
3:53 PM 84.9 °F 84.8 °F 60.1 °F 43% 30.13 in 10.0 mi South 8.1 mph 18.4 mph N/A   Clear
4:53 PM 84.9 °F 84.2 °F 57.9 °F 40% 30.12 in 10.0 mi South 10.4 mph - N/A   Clear
5:53 PM 84.9 °F 84.2 °F 57.9 °F 40% 30.11 in 10.0 mi South 9.2 mph - N/A   Clear
6:53 PM 82.9 °F 82.8 °F 59.0 °F 44% 30.10 in 10.0 mi South 5.8 mph - N/A   Clear
7:53 PM 79.0 °F - 60.1 °F 52% 30.10 in 10.0 mi South 5.8 mph - N/A   Clear
8:53 PM 69.1 °F - 61.0 °F 75% 30.11 in 10.0 mi South 3.5 mph - N/A   Clear
9:53 PM 70.0 °F - 61.0 °F 73% 30.11 in 10.0 mi South 4.6 mph - N/A   Clear
10:53 PM 68.0 °F - 60.1 °F 76% 30.12 in 10.0 mi South 3.5 mph - N/A   Clear
11:53 PM 66.0 °F - 60.1 °F 81% 30.13 in 10.0 mi SSE 5.8 mph - N/A   Clear